Location: Cran-Gévrier
(45.9039°N, 6.1012°E)
Time: 04:37:28
(UTC+00:00)

Envisat - Visible Passes

Search period start: 19 June 2024 00:00
Search period end: 29 June 2024 00:00
Orbit: 762 x 764 km, 98.3° (Epoch: 18 June)

Date Brightness Start Highest point End Pass type
(mag) Time Alt. Az. Time Alt. Az. Time Alt. Az.
19 Jun 3.2 02:54:37 10° NNE 02:59:44 78° ESE 03:04:48 10° S visible
20 Jun 4.3 02:17:32 10° NNE 02:22:14 36° E 02:26:52 10° SSE visible
21 Jun 5.4 01:41:12 10° NE 01:44:31 17° E 01:47:49 10° SE visible
22 Jun 3.5 02:41:32 10° NNE 02:46:34 60° E 02:51:34 10° S visible
23 Jun 4.7 02:04:38 10° NE 02:08:59 28° E 02:13:19 10° SSE visible
24 Jun 5.5 01:28:52 10° ENE 01:31:12 13° E 01:33:32 10° ESE visible
24 Jun 3.0 03:05:43 10° NNE 03:10:49 84° WNW 03:15:54 10° SSW visible
25 Jun 3.9 02:28:29 10° NNE 02:33:23 46° E 02:38:14 10° S visible
26 Jun 5.1 01:51:50 10° NE 01:55:44 22° E 01:59:36 10° SE visible
27 Jun 3.2 02:52:34 10° NNE 02:57:41 76° ESE 03:02:44 10° S visible
28 Jun 4.4 02:15:30 10° NNE 02:20:10 35° E 02:24:47 10° SSE visible
